GFSNGP_700_spd_141.txt.gz
Wind_Speed
24 25 27 29 27 26 31 31 22 28 31 23 23 21 20 21 21 15 17 16 14 12 11 9 11 12 15 16 17 18 18 8 9 16 14 3 4 11 4 13 19 20 26 34
31 14 11 27 27 27 28 32 36 33 29 15 17 15 15 13 13 14 17 19 17 16 14 13 12 11 11 13 14 15 16 14 5 12 2 18 12 5 4 15 15 19 18 28
12 14 29 15 6 9 15 20 23 26 18 20 20 19 17 16 14 12 14 18 19 19 18 16 14 13 12 11 11 10 11 12 13 12 5 9 1 6 9 9 12 23 19 18
15 20 4 6 26 16 16 14 15 17 11 13 18 20 18 18 16 12 11 12 16 19 19 20 18 16 14 12 11 10 9 8 8 8 7 8 10 9 10 8 8 8 4 4
7 8 23 12 5 10 13 15 15 6 9 15 17 19 14 19 18 16 15 12 12 13 17 20 21 20 18 15 14 11 12 11 8 8 6 3 3 2 2 4 4 4 2 2
7 4 5 7 16 20 17 17 6 8 20 20 17 19 17 19 19 19 18 15 14 14 14 15 16 20 19 18 16 14 12 14 11 11 11 10 8 7 5 4 4 5 5 5
24 13 14 23 18 10 5 8 11 21 30 30 24 23 25 22 21 19 18 18 16 16 16 16 15 17 17 17 17 15 14 13 12 12 13 13 13 12 11 12 11 10 10 11
11 12 12 3 7 10 17 32 30 30 35 41 32 28 29 25 22 20 19 17 18 19 18 17 16 17 17 17 18 16 15 16 15 14 13 14 14 13 12 12 12 13 13 11
19 18 20 35 34 34 37 41 38 39 39 42 38 35 31 29 24 23 19 19 19 19 19 19 19 19 18 16 17 18 17 16 16 17 16 15 14 14 14 14 14 16 17 15
40 45 38 32 41 40 31 39 32 31 33 35 36 34 28 24 22 22 23 21 21 20 20 19 19 19 19 18 19 18 17 18 19 19 18 18 17 17 17 17 18 20 20 20
53 56 49 46 36 32 27 31 30 24 24 25 29 32 32 30 30 28 25 25 24 23 21 21 22 22 21 19 19 20 19 19 20 20 20 20 21 21 22 23 24 24 24 23
54 41 46 48 40 38 41 33 35 36 33 30 34 36 35 33 31 30 27 27 27 25 21 19 23 24 24 21 20 20 20 19 19 19 20 21 22 22 23 24 24 24 24 23
54 46 37 38 41 31 35 31 29 33 34 33 34 35 35 33 31 30 30 29 27 26 23 23 21 22 23 23 22 22 21 20 20 19 20 20 20 21 22 20 21 22 23 23
52 53 52 46 48 37 37 35 37 35 36 37 39 38 37 39 36 31 29 27 26 27 26 24 23 20 21 23 22 22 22 21 21 21 21 21 21 20 21 21 22 23 24 25
47 50 52 44 48 44 40 41 41 43 41 38 37 40 38 40 39 36 32 31 30 28 27 25 24 20 21 20 21 22 22 22 23 24 23 23 23 22 22 23 23 24 24 26
35 46 46 42 48 43 41 39 40 42 41 41 37 35 38 38 36 38 36 34 34 27 25 27 25 23 25 23 22 22 22 23 24 24 24 25 24 24 23 23 24 25 25 25
43 38 37 39 38 34 35 34 29 30 32 33 35 33 36 35 35 34 33 32 31 28 26 27 24 26 27 26 25 24 24 25 25 25 25 25 26 24 25 25 25 25 25 26
34 36 35 34 36 34 31 28 29 28 28 24 26 25 25 25 24 26 28 30 30 30 25 23 24 25 25 27 27 27 26 25 25 25 25 25 25 25 25 25 26 26 27 28
28 30 32 33 33 33 32 30 28 26 23 22 24 22 19 17 15 16 18 20 22 24 22 25 26 26 26 27 28 27 26 25 23 23 24 25 25 24 24 25 26 26 27 28
20 23 24 27 28 32 27 24 22 19 17 17 16 14 14 15 15 15 16 16 17 19 23 25 25 26 27 28 27 27 26 24 23 23 24 24 24 24 25 25 26 27 27 27
20 21 28 25 18 19 15 15 15 16 16 14 14 14 12 10 9 9 9 9 12 13 17 21 25 26 27 26 26 26 25 24 23 24 24 23 23 24 24 25 25 25 25 27
18 21 28 28 20 15 13 15 14 13 14 12 11 11 11 11 12 13 15 16 17 17 18 20 21 24 26 25 26 25 24 23 23 23 23 23 24 23 23 23 23 23 26 30
23 23 27 29 28 21 10 8 8 11 10 11 12 14 15 16 17 18 21 24 25 26 25 24 24 25 24 24 24 24 23 22 22 23 23 23 22 22 21 21 21 25 28 31
19 19 23 26 26 15 14 12 13 15 15 16 18 20 20 19 20 20 21 22 22 22 22 21 21 20 20 21 22 21 21 22 21 21 21 20 19 19 19 20 23 26 27 28
21 20 22 23 27 25 24 18 21 23 23 25 25 25 26 27 22 19 20 20 21 20 19 18 16 16 19 20 20 19 20 20 20 19 18 18 17 17 19 21 22 23 24 24
25 23 24 28 25 24 26 24 22 28 28 27 25 24 22 16 15 17 17 17 16 17 16 11 11 16 17 18 18 17 17 17 17 16 16 16 16 17 19 20 20 21 20 17
36 31 30 29 29 26 27 29 25 28 30 25 23 21 16 14 13 13 11 11 12 11 11 11 12 12 12 13 14 15 15 14 14 13 13 13 14 17 18 18 18 17 14 15

GFSNGP_700_spd_144.txt.gz
Wind_Speed
29 29 31 32 30 31 37 36 24 34 35 22 18 13 13 15 15 16 16 22 22 21 21 19 17 16 16 16 16 17 19 19 11 11 24 15 9 2 4 8 26 21 29 30
34 17 13 25 29 25 28 30 37 35 32 15 15 16 15 15 15 14 15 16 22 23 22 22 20 18 17 16 16 15 15 16 18 16 15 9 11 20 17 8 8 26 24 29
13 15 28 22 7 9 16 19 19 23 18 16 14 18 19 17 16 15 13 14 15 19 25 24 23 21 18 17 16 15 14 14 14 13 15 17 6 5 7 8 11 19 19 12
17 20 3 6 17 19 11 15 16 14 11 9 17 21 19 16 18 15 14 13 12 13 16 21 24 24 22 20 18 17 16 14 14 13 11 12 12 12 13 12 7 11 15 13
8 8 24 13 2 7 18 15 11 6 4 15 24 25 16 20 19 18 18 16 14 12 11 12 14 17 20 21 20 18 18 17 15 15 13 10 8 7 8 9 10 8 7 7
7 6 5 8 12 18 16 8 7 7 19 27 31 31 26 25 27 24 20 18 16 15 13 12 11 12 13 14 15 17 17 16 16 17 16 14 11 8 6 7 6 6 6 6
25 13 16 21 21 13 4 8 13 29 31 31 33 34 34 27 27 26 25 20 18 16 15 14 13 13 12 12 11 12 14 14 13 14 15 15 15 13 10 8 8 8 8 8
10 11 14 5 6 12 23 34 36 41 39 33 35 37 37 34 26 28 27 25 20 17 16 15 15 14 12 12 13 11 10 12 13 13 13 13 13 12 11 11 9 7 7 8
24 30 32 35 46 39 39 44 40 37 36 36 36 35 35 31 27 23 25 21 22 20 19 18 16 17 16 16 14 13 11 11 12 13 13 12 13 13 11 10 9 8 9 10
43 51 45 46 46 43 46 41 35 33 32 33 35 29 27 23 23 25 23 25 24 24 23 20 21 21 20 19 17 16 14 13 12 13 14 15 14 14 14 14 14 13 12 11
56 60 54 57 47 42 39 35 38 39 39 38 34 34 34 34 30 30 28 25 28 30 28 24 23 23 23 23 20 19 18 16 14 13 14 16 17 18 17 17 16 16 15 14
58 54 50 60 49 48 42 40 39 37 42 40 37 37 39 39 37 35 31 29 28 30 31 27 26 26 25 25 24 23 21 19 18 16 15 16 16 17 17 18 17 16 15 15
56 50 45 50 47 44 45 46 50 43 36 43 37 36 36 38 38 36 32 32 30 27 30 32 30 31 29 26 25 24 24 22 21 19 18 17 17 18 18 18 18 18 18 18
40 44 50 48 52 47 44 43 43 42 40 40 42 40 38 42 44 43 40 36 33 32 31 31 31 33 32 28 26 24 24 24 23 22 21 20 20 20 20 19 19 19 19 20
43 49 55 51 45 40 35 35 40 42 42 39 39 42 42 43 44 43 40 40 40 38 35 33 30 30 32 30 26 24 25 24 24 24 23 22 22 22 23 22 22 22 21 21
43 43 41 40 38 29 28 32 34 33 32 35 36 37 38 41 42 41 41 41 46 42 36 34 32 28 32 31 29 26 25 24 24 24 24 24 24 23 24 25 24 24 25 25
39 41 36 36 33 28 28 32 33 33 33 33 30 32 31 34 39 38 37 39 41 37 35 35 31 30 33 32 30 28 27 25 25 25 25 25 25 25 25 26 26 26 26 26
28 27 28 30 31 34 37 37 36 36 37 35 35 33 29 28 28 28 26 29 31 28 27 28 30 30 32 32 30 29 29 27 26 26 25 26 26 26 27 26 26 26 27 27
29 26 20 20 23 29 34 33 30 31 33 30 33 29 26 27 27 20 17 18 19 19 21 25 27 27 28 27 27 28 29 28 27 27 26 26 26 25 26 26 26 27 27 27
27 23 12 15 25 30 32 33 28 27 28 22 20 19 15 16 15 15 15 14 15 12 14 19 23 25 26 27 28 30 29 29 28 26 26 26 25 24 25 25 26 26 26 26
19 21 21 12 18 28 31 34 27 17 15 14 13 11 10 13 10 7 7 8 7 7 9 12 15 20 23 25 26 28 29 29 28 26 24 25 24 24 24 24 24 23 23 23
26 24 26 19 17 24 27 28 33 23 15 6 7 7 7 7 7 7 8 10 12 14 15 15 15 16 18 21 26 28 28 28 27 24 23 23 22 22 22 22 22 22 22 21
11 16 22 20 16 22 24 25 26 13 6 9 7 7 10 13 16 17 18 18 18 19 20 22 23 22 20 21 22 24 25 24 23 23 22 21 21 21 20 20 20 20 20 20
33 15 16 25 21 22 23 20 21 12 6 10 11 13 14 16 18 22 26 27 24 23 21 18 16 16 18 17 18 19 20 21 21 20 19 20 19 18 18 18 18 19 19 21
36 34 25 29 23 24 24 20 19 18 19 21 21 20 22 22 23 24 28 24 17 16 16 15 14 14 15 15 15 18 19 19 19 19 18 16 16 16 16 16 16 17 18 20
39 34 34 33 29 25 26 24 24 20 21 22 29 30 29 26 22 19 17 15 16 14 13 13 13 12 11 12 14 15 15 15 15 14 13 13 13 13 13 14 15 17 19 20
33 34 35 35 30 27 28 28 24 22 22 24 27 30 26 22 20 17 15 13 10 10 9 9 8 7 7 8 10 11 11 11 11 11 10 9 10 10 12 13 16 17 17 15

GFSNGP_700_spd_147.txt.gz
Wind_Speed
35 36 35 38 35 35 37 37 26 35 38 24 17 12 13 16 16 18 17 16 16 20 26 27 25 23 21 20 19 19 20 20 21 22 24 18 19 15 6 10 15 26 23 28
43 33 18 31 34 31 30 32 40 38 34 15 15 14 17 18 19 17 16 16 15 14 16 24 26 25 24 22 21 20 20 18 18 20 20 19 26 10 17 12 8 7 22 21
18 17 34 25 7 9 11 19 21 27 22 11 7 13 18 17 17 18 18 17 15 13 13 14 18 22 24 25 24 22 21 19 16 17 18 18 17 20 23 10 19 14 2 19
23 23 3 9 27 26 23 15 21 22 7 4 13 21 24 22 22 21 21 20 17 15 12 12 13 15 18 20 22 21 21 20 18 17 16 15 15 14 15 17 8 2 3 10
9 8 25 25 6 5 10 21 8 4 5 19 29 32 27 29 29 27 24 22 20 18 16 13 11 12 13 15 17 18 18 17 16 17 16 13 12 12 12 12 14 14 12 9
12 7 6 9 19 19 17 18 2 6 19 32 36 39 38 32 35 35 27 24 21 21 18 16 15 12 12 12 12 14 15 15 14 12 12 13 11 9 10 10 9 9 9 9
32 15 18 25 25 23 8 1 10 29 37 37 42 42 39 32 35 37 36 27 26 22 20 19 18 16 14 13 13 13 13 13 13 13 12 11 10 9 9 10 8 7 8 6
19 14 14 10 9 10 10 26 46 45 45 48 43 40 35 33 30 30 32 31 27 26 19 21 20 17 16 14 17 13 14 14 14 14 14 12 11 9 7 7 7 7 6 6
39 37 32 37 45 49 51 48 56 50 42 41 42 39 35 35 34 31 25 26 23 22 22 22 22 21 18 16 18 15 14 15 15 15 15 15 14 13 12 11 10 9 9 9
47 49 50 52 51 49 50 44 42 39 45 46 46 42 40 39 35 33 30 27 29 27 27 26 24 24 24 25 21 18 17 17 17 17 17 18 17 16 15 15 14 13 13 13
58 54 56 54 48 49 51 48 46 46 45 42 41 42 41 40 43 41 40 38 36 37 35 31 30 30 27 27 29 23 21 20 18 18 18 19 19 20 20 19 18 17 17 17
63 53 51 53 48 47 48 47 44 41 42 40 41 43 48 43 42 40 40 40 38 37 38 33 33 32 29 29 29 29 26 24 21 20 19 19 19 21 21 21 21 21 20 19
46 44 51 53 49 44 46 46 43 41 41 44 41 41 44 45 42 42 41 41 39 37 36 34 34 34 34 35 34 32 28 26 26 24 21 20 20 20 21 21 21 20 18 18
50 49 54 49 51 47 43 42 39 43 44 45 42 39 42 46 45 45 43 43 43 40 38 39 40 36 33 36 38 35 31 29 28 25 24 23 21 21 21 21 21 21 20 19
41 43 47 50 50 48 42 38 38 40 38 40 36 37 37 39 39 40 43 46 46 48 37 37 42 37 31 34 37 36 33 30 28 26 27 25 24 22 21 22 22 22 21 22
42 41 44 44 47 45 42 36 36 37 38 38 36 36 36 37 40 38 38 41 44 41 41 35 38 36 36 36 35 34 32 30 29 28 27 26 23 22 22 22 23 23 22 22
39 35 31 33 36 37 38 34 33 36 38 40 41 41 41 40 41 37 36 39 37 38 36 34 29 33 36 37 35 33 32 31 29 28 27 26 24 23 23 23 24 25 24 23
29 26 25 30 34 31 23 17 23 27 30 33 34 32 33 35 35 33 31 28 27 25 26 19 20 28 32 34 33 31 32 31 29 27 27 27 26 25 25 24 24 24 25 25
18 23 29 32 35 37 35 26 27 23 29 30 29 29 28 25 22 23 22 28 23 17 19 17 20 22 27 31 30 30 31 30 29 28 29 29 28 27 26 25 25 25 24 24
13 22 26 32 33 20 24 28 33 29 30 31 24 29 20 16 16 12 12 12 11 13 13 11 12 17 21 22 23 27 29 28 28 28 29 28 28 27 26 25 24 25 24 24
27 28 30 29 25 20 19 26 32 36 32 26 16 15 13 10 9 10 4 4 3 3 4 4 3 7 12 16 19 22 25 26 27 28 27 27 26 25 24 23 22 22 22 22
36 33 31 27 22 18 20 22 25 31 30 16 12 3 2 3 6 8 9 9 7 5 5 3 4 6 7 12 15 19 22 24 25 25 25 24 23 22 21 20 20 20 20 20
41 40 36 32 30 22 17 22 26 24 27 20 15 13 10 11 12 13 14 15 16 17 19 20 20 19 18 16 15 15 18 20 21 22 22 22 20 19 19 18 17 17 17 17
40 38 36 32 34 30 20 18 23 24 25 19 18 15 16 15 14 16 17 18 21 20 15 14 14 10 10 13 15 15 16 17 17 18 18 18 17 17 16 16 17 16 14 13
41 41 36 34 32 36 27 22 25 26 25 21 20 22 25 23 23 24 24 21 16 12 11 10 11 11 11 11 10 11 12 13 14 14 15 14 14 14 15 14 12 9 12 16
51 45 41 35 33 31 30 33 31 28 27 25 22 24 25 23 24 22 20 16 12 13 10 7 7 9 9 8 7 8 8 9 10 10 10 10 11 11 10 8 8 11 13 15
50 44 38 35 32 32 28 34 36 30 26 25 23 21 25 23 22 19 16 10 10 9 9 6 3 3 4 5 6 6 7 7 7 8 8 8 7 6 7 8 10 12 13 15

GFSNGP_700_spd_150.txt.gz
Wind_Speed
37 37 40 40 33 28 35 36 27 39 40 28 18 17 13 16 18 19 19 20 20 20 19 19 24 27 27 23 24 23 22 22 21 19 19 17 18 19 21 18 17 17 24 24
48 32 25 32 43 38 32 33 38 36 34 21 17 9 14 21 20 19 19 20 21 20 19 20 20 21 25 26 26 25 24 23 21 19 19 17 16 18 18 18 13 12 9 15
24 27 32 26 7 14 30 21 19 25 24 10 4 11 16 25 24 26 26 25 22 22 22 20 20 21 19 22 23 23 23 23 22 19 18 16 15 16 15 15 13 15 14 8
24 29 2 8 22 34 21 16 15 19 7 8 16 22 26 26 30 31 33 29 24 23 22 22 20 19 20 19 19 20 20 21 21 19 18 16 14 14 13 14 15 17 10 6
9 9 26 26 13 12 21 25 27 3 13 29 36 40 36 39 38 34 31 33 33 27 24 22 22 21 20 20 19 18 18 19 19 17 16 14 13 13 13 11 10 11 12 13
13 8 6 4 21 30 28 24 8 10 30 50 44 50 47 42 44 40 34 36 38 36 27 25 24 25 21 20 20 20 19 18 18 17 15 14 13 13 13 11 9 8 8 8
34 16 18 23 21 20 9 5 17 36 51 54 48 51 49 45 40 34 30 33 32 34 32 25 26 25 22 21 19 23 19 19 17 17 17 16 14 14 14 13 10 8 5 3
19 13 15 16 14 10 17 34 51 55 52 52 44 38 42 42 41 42 37 36 35 31 29 25 24 26 22 21 21 22 21 20 20 18 18 18 16 14 13 12 11 10 8 7
31 39 35 40 48 50 53 51 52 46 39 35 43 50 49 50 47 46 42 38 34 36 30 25 27 27 25 20 27 25 20 21 21 21 19 18 19 18 17 15 14 13 12 12
43 49 45 44 48 50 44 38 36 41 51 52 54 53 52 51 48 48 42 41 35 37 39 33 31 30 27 26 28 30 26 22 22 22 22 21 19 19 20 19 18 18 17 16
61 54 55 52 35 31 38 46 50 47 45 47 44 48 49 52 49 48 46 43 43 41 40 44 37 38 35 32 33 34 30 29 25 23 23 23 22 21 21 21 21 21 21 20
62 50 52 50 47 43 45 42 45 46 48 47 48 48 46 49 49 49 48 44 43 41 44 40 45 38 34 34 32 35 32 29 28 25 24 24 24 24 23 21 21 21 22 21
54 49 54 50 43 38 41 44 46 45 44 46 44 44 44 45 46 46 45 43 43 43 46 41 38 40 34 34 34 35 36 32 30 30 27 25 25 25 24 23 22 21 21 20
40 43 45 40 47 46 44 44 44 44 41 40 42 45 44 47 46 42 40 39 37 37 44 39 39 37 40 37 39 36 35 36 34 32 31 27 26 26 26 24 23 23 21 21
36 43 50 50 45 43 44 41 38 39 39 38 38 44 45 44 41 39 39 40 39 39 38 35 35 37 37 40 39 38 34 33 34 33 31 29 28 28 27 25 24 23 22 22
50 43 33 36 41 41 37 31 36 38 37 38 37 39 42 43 45 44 42 41 42 41 40 38 36 34 38 42 41 37 34 29 30 32 32 30 29 28 26 24 23 23 23 22
32 34 34 32 31 34 34 35 35 33 44 41 35 32 33 36 37 37 36 37 39 36 36 33 29 35 34 37 42 37 34 31 28 31 32 30 27 26 25 24 23 23 23 22
26 24 18 26 31 22 27 33 26 25 34 37 35 36 37 31 27 26 28 30 30 27 28 29 30 28 30 30 41 33 29 30 31 30 29 27 26 26 26 25 24 23 23 23
24 26 21 17 23 24 29 37 40 32 34 35 39 39 32 27 29 31 25 22 22 20 20 19 18 20 19 18 26 29 23 24 26 26 26 27 27 27 26 24 23 23 23 22
33 32 30 30 28 28 29 31 33 29 31 35 39 40 31 27 28 21 15 12 14 15 13 10 11 11 15 18 14 12 17 22 21 23 26 26 25 25 25 24 22 22 21 21
43 39 33 32 32 30 30 35 32 29 30 33 32 33 30 23 16 14 11 9 10 9 8 7 4 4 4 9 13 14 16 19 22 23 22 22 23 23 23 21 21 20 20 19
50 42 37 35 36 35 30 30 32 32 34 30 31 32 28 24 19 16 14 16 16 15 14 12 10 7 4 5 7 9 12 15 16 18 19 21 21 21 20 19 18 18 17 17
42 39 38 37 37 37 38 34 31 30 32 30 30 29 27 28 25 18 18 17 20 22 20 15 10 12 16 11 9 9 11 14 17 17 18 19 19 18 17 18 17 16 16 16
41 40 39 39 38 38 40 39 34 31 30 32 31 31 29 24 25 23 24 26 26 20 11 12 10 4 3 1 2 3 6 10 12 13 15 16 15 15 14 14 15 15 16 16
42 42 44 44 45 43 41 37 34 34 28 31 31 31 29 26 24 24 19 21 19 9 11 11 9 7 5 3 3 5 6 7 8 10 11 11 11 11 11 12 13 14 13 11
47 50 50 48 46 42 37 35 34 33 31 31 29 30 29 25 22 24 21 21 9 9 9 8 7 5 3 1 4 5 6 7 8 8 8 8 9 9 10 10 10 8 7 9
45 38 37 39 39 35 32 32 36 35 33 31 28 28 29 26 21 24 19 18 7 7 8 7 5 3 1 2 5 6 6 6 6 7 7 7 7 7 7 6 6 7 9 12

GFSNGP_700_spd_153.txt.gz
Wind_Speed
39 37 36 36 33 31 34 35 24 31 38 27 20 15 9 14 15 16 17 19 21 21 21 20 21 22 22 22 27 28 28 27 26 26 23 21 19 19 17 21 17 19 15 15
46 40 28 33 39 37 28 26 32 28 25 17 9 8 12 17 23 23 26 26 24 24 23 23 23 23 22 21 21 24 26 28 29 28 25 22 20 18 17 16 18 21 15 17
20 26 31 30 3 14 25 24 18 17 16 5 8 22 27 29 29 32 30 29 33 30 26 26 25 25 23 23 23 21 22 25 26 26 24 22 21 17 18 17 15 15 14 10
25 23 3 8 21 31 15 14 14 23 6 7 21 32 29 32 33 38 39 38 34 34 33 29 29 28 26 24 23 24 22 22 23 23 22 21 20 19 18 17 15 14 12 13
9 10 24 32 15 11 25 32 26 4 5 26 30 35 42 40 39 39 39 38 36 37 33 32 30 30 29 27 25 23 24 23 20 21 20 20 19 19 18 17 15 15 14 12
15 9 6 1 15 25 32 29 8 14 32 42 48 55 49 46 47 43 39 41 44 41 38 35 32 33 31 28 27 24 25 26 23 20 20 21 19 19 18 18 16 15 13 11
39 19 23 29 30 28 11 12 17 43 53 50 50 44 50 55 50 46 46 45 44 48 47 40 37 35 32 28 27 24 26 24 24 24 20 20 21 19 19 18 17 15 12 10
23 14 14 7 6 17 24 37 53 53 50 55 54 54 55 56 54 53 50 45 42 45 46 43 38 39 31 28 21 27 26 25 22 24 23 21 20 21 19 18 16 15 14 12
33 41 37 26 55 44 45 48 52 52 44 44 49 52 54 52 48 45 43 43 40 40 45 43 40 38 41 28 26 26 29 26 25 23 23 23 22 20 21 20 19 17 16 15
39 44 52 41 49 48 42 42 38 35 40 48 49 48 48 47 47 46 45 45 44 42 42 44 40 40 42 38 31 32 29 30 28 28 25 24 25 23 21 22 22 21 20 19
53 49 49 54 33 34 45 45 48 39 38 40 44 47 47 45 44 43 44 44 44 44 44 42 40 42 39 37 40 40 36 34 33 31 31 27 25 25 24 22 23 23 23 22
61 48 43 42 40 48 43 37 37 39 42 41 41 43 43 43 41 41 42 44 45 45 45 39 38 41 38 37 40 39 38 35 33 33 31 31 28 26 26 25 23 23 24 24
50 41 39 49 51 38 38 43 42 41 40 40 37 37 40 43 44 42 46 48 49 45 39 37 34 35 32 33 38 35 40 32 34 34 33 31 30 28 26 26 26 24 23 23
45 49 52 42 40 46 41 36 33 34 33 33 37 38 40 46 47 48 47 47 47 46 42 38 37 35 30 32 34 38 35 36 33 34 35 34 32 30 29 27 27 26 24 22
35 35 39 44 47 32 28 30 32 30 31 33 35 36 41 45 44 41 42 45 46 45 44 41 39 36 36 31 31 35 40 39 36 36 35 35 34 32 31 30 27 25 24 23
40 43 42 37 31 29 33 23 26 25 25 21 26 24 33 38 38 38 43 42 42 39 36 36 37 37 36 36 35 33 33 39 42 39 36 36 35 34 32 30 28 25 23 23
29 27 25 23 27 27 19 18 21 29 30 30 37 34 37 38 41 35 35 33 33 32 30 29 30 31 34 35 32 34 33 34 43 37 35 34 34 33 30 28 26 25 24 23
20 27 26 24 29 31 18 25 27 27 32 34 33 37 39 42 40 43 38 33 30 27 29 28 27 27 29 31 31 31 33 32 41 37 33 31 33 31 29 27 26 25 23 22
34 36 33 32 29 26 29 30 30 27 29 34 34 37 38 39 43 39 39 32 30 27 26 26 25 25 22 21 24 25 23 26 38 37 35 31 31 30 29 27 24 22 21 20
39 37 37 38 35 32 32 32 33 31 29 31 35 36 39 38 39 34 33 25 28 22 27 26 24 22 18 13 15 16 14 21 29 31 28 27 28 27 25 23 21 20 19 19
42 41 41 40 37 29 27 28 33 36 35 34 35 38 37 34 35 35 33 27 27 26 23 24 22 20 19 9 8 11 6 10 19 24 26 27 26 22 20 19 20 19 19 19
43 40 38 37 36 33 28 30 32 38 38 36 36 36 37 32 32 31 31 32 26 29 31 29 23 19 16 15 8 6 9 8 13 17 18 18 18 17 17 19 18 18 18 17
48 45 39 35 34 34 35 34 34 34 37 41 36 36 36 31 31 34 29 31 26 26 29 25 15 12 10 13 12 11 10 10 10 12 13 14 14 17 19 17 15 15 15 15
48 44 42 39 39 41 41 41 41 41 40 42 34 35 36 30 25 28 28 28 27 29 26 10 7 7 2 1 6 4 7 8 7 8 11 14 16 15 14 13 13 13 13 14
45 44 43 44 44 43 41 37 35 31 35 39 33 34 34 29 24 23 25 24 26 26 12 8 9 7 6 4 3 7 7 8 8 9 10 10 9 9 10 10 10 9 10 10
46 44 41 41 41 35 37 38 37 33 32 34 31 33 32 28 21 20 21 22 21 20 7 9 9 4 1 4 6 7 7 6 7 7 7 7 8 8 7 7 7 7 8 7
41 39 38 36 34 36 39 42 42 37 32 32 32 31 29 25 20 17 19 21 16 14 3 8 3 2 5 8 8 8 7 6 6 6 6 6 6 6 6 6 6 6 5 4